Location: Newark
(48.0000°N, 67.0000°E)
Time: 13:39:58
(UTC+00:00)

N. Korean satellite - Pass Details

Date: 29 January 2020
Orbit: 456 x 505 km, 97.2° (Epoch: 24 February)

Event Time Altitude Azimuth Distance (km) Brightness Sun altitude
Rises 00:50:44 0° 21° (NNE) 2,551 10.5 -22.3°
Reaches altitude 10° 00:52:57 10° 32° (NNE) 1,675 9.6 -22.0°
Maximum altitude 00:56:13 32° 97° (E) 869 8.5 -21.4°
Drops below altitude 10° 00:59:30 10° 161° (SSE) 1,686 9.6 -20.9°
Sets 01:01:44 0° 172° (S) 2,571 10.4 -20.5°
